TimeCDT,TemperatureF,Dew PointF,Humidity,Sea Level PressureIn,VisibilityMPH,Wind Direction,Wind SpeedMPH,Gust SpeedMPH,PrecipitationIn,Events,Conditions,WindDirDegrees,DateUTC
12:53 AM,73.0,66.9,81,29.62,9.0,SE,16.1,26.5,N/A,,Mostly Cloudy,130,2013-04-09 05:53:00
1:53 AM,73.9,66.0,76,29.61,8.0,SE,18.4,29.9,N/A,,Overcast,140,2013-04-09 06:53:00
2:53 AM,75.0,66.0,73,29.60,8.0,SSE,13.8,21.9,N/A,,Overcast,150,2013-04-09 07:53:00
3:53 AM,75.0,66.0,73,29.59,7.0,SSE,15.0,21.9,N/A,,Overcast,150,2013-04-09 08:53:00
4:53 AM,73.9,66.0,76,29.57,7.0,SE,11.5,18.4,N/A,,Mostly Cloudy,140,2013-04-09 09:53:00
5:11 AM,73.4,66.2,78,29.60,7.0,SE,8.1,-,N/A,,Scattered Clouds,130,2013-04-09 10:11:00
5:27 AM,73.4,66.2,78,29.60,7.0,SE,5.8,17.3,N/A,,Mostly Cloudy,140,2013-04-09 10:27:00
5:53 AM,73.9,66.9,79,29.59,7.0,SE,9.2,-,N/A,,Overcast,130,2013-04-09 10:53:00
6:53 AM,73.9,66.9,79,29.60,8.0,SE,6.9,-,N/A,,Overcast,140,2013-04-09 11:53:00
7:53 AM,73.9,66.9,79,29.61,6.0,SE,10.4,-,N/A,,Haze,130,2013-04-09 12:53:00
8:53 AM,73.9,66.9,79,29.64,6.0,SE,5.8,-,N/A,,Haze,130,2013-04-09 13:53:00
9:53 AM,77.0,68.0,74,29.63,6.0,SSE,11.5,18.4,N/A,,Haze,150,2013-04-09 14:53:00
10:53 AM,82.0,68.0,62,29.64,7.0,South,8.1,-,N/A,,Scattered Clouds,170,2013-04-09 15:53:00
11:53 AM,86.0,66.9,53,29.63,8.0,Variable,5.8,-,N/A,,Clear,0,2013-04-09 16:53:00
12:53 PM,91.0,64.0,41,29.60,10.0,Variable,4.6,-,N/A,,Clear,0,2013-04-09 17:53:00
1:53 PM,95.0,60.1,31,29.56,10.0,South,8.1,-,N/A,,Clear,190,2013-04-09 18:53:00
2:53 PM,98.1,53.1,22,29.52,10.0,ESE,4.6,17.3,N/A,,Clear,120,2013-04-09 19:53:00
3:53 PM,102.0,44.1,14,29.48,10.0,Variable,4.6,-,N/A,,Clear,0,2013-04-09 20:53:00
4:53 PM,102.0,42.1,13,29.46,10.0,SSE,8.1,-,N/A,,Clear,150,2013-04-09 21:53:00
5:53 PM,102.9,36.0,10,29.45,10.0,South,8.1,-,N/A,,Clear,190,2013-04-09 22:53:00
6:53 PM,102.0,28.9,8,29.44,10.0,SE,9.2,-,N/A,,Clear,130,2013-04-09 23:53:00
7:53 PM,90.0,66.9,46,29.46,8.0,East,18.4,26.5,N/A,,Clear,100,2013-04-10 00:53:00
8:53 PM,86.0,68.0,55,29.49,9.0,East,16.1,26.5,N/A,,Clear,90,2013-04-10 01:53:00
9:53 PM,82.9,69.1,63,29.52,9.0,East,15.0,23.0,N/A,,Clear,100,2013-04-10 02:53:00
10:53 PM,78.1,69.1,74,29.56,9.0,East,11.5,-,N/A,,Clear,100,2013-04-10 03:53:00
11:53 PM,75.9,70.0,82,29.58,8.0,ESE,15.0,21.9,N/A,,Clear,110,2013-04-10 04:53:00